Flag for Hungary Weather past 2 weeks in Győr, Hungary

Now
69 °F

Mild.


Feels Like: 69 °F
Forecast: 48 / 72 °F
Wind: 3 mph from Northwest

Location: Gyor

Current Time: Aug 27, 2014 at 11:01:43 AM

Latest Report: Aug 27, 2014 at 10:00 AM


Visibility: N/A

Pressure: 29.79 "Hg

Humidity: 64%

Dew point: 57 °F

Location of GyőrLocation

Historic Weather in Győr — Graph

°F

Győr temperature yesterday

Maximum temperature yesterday: 72 °F (at 4:00 PM)
Minimum temperature yesterday: 53 °F (at 2:00 AM)
Average temperature yesterday: 63 °F

Past Weeks' High & Low Weather Summary

 TemperatureHumidityPressure
High80 °F (Aug 13, 7:00 PM)98% (Aug 23, 11:00 PM)30.15 "Hg (Aug 23, 11:00 PM)
Low47 °F (Aug 25, 5:00 AM)40% (Aug 25, 7:00 PM)29.65 "Hg (Aug 13, 10:00 PM)
Average63 °F78%29.95 "Hg
* Reported Aug 12 9:00 AM — Aug 27 9:00 AM, Győr, Weather by CustomWeather, © 2014

Note: Actual official high and low records may vary slightly from our data, if they occured in-between our weather recording intervals... More about our weather records

Advertising

Győr weather history for previous 24 hours

 ConditionsComfort  
Time TempWeatherWind HumidityBarometerVisibility
9:00 AM
Aug 27
68 °FMild.1 mph75%29.77 "HgN/A
8:00 AM64 °FMild.1 mph91%29.76 "HgN/A
7:00 AM62 °FCool.No wind95%29.75 "HgN/A
6:00 AM62 °FCool.1 mph94%29.75 "HgN/A
5:00 AM63 °FMild.1 mph90%29.75 "HgN/A
4:00 AM64 °FMild.2 mph86%29.73 "HgN/A
3:00 AM64 °FMild.1 mph88%29.74 "HgN/A
2:00 AM63 °FMild.No wind91%29.76 "HgN/A
1:00 AM64 °FMild.No wind91%29.77 "HgN/A
12:00 AM66 °FMild.1 mph81%29.78 "HgN/A
11:00 PM
Aug 26
66 °FMild.1 mph79%29.78 "HgN/A
10:00 PM68 °FMild.2 mph76%29.77 "HgN/A
9:00 PM67 °FMild.1 mph78%29.78 "HgN/A
8:00 PM69 °FMild.2 mph76%29.77 "HgN/A
7:00 PM71 °FMild.3 mph72%29.76 "HgN/A
6:00 PM71 °FMild.3 mph70%29.76 "HgN/A
5:00 PM72 °FMild.3 mph69%29.76 "HgN/A
4:00 PM72 °FMild.2 mph69%29.76 "HgN/A
3:00 PM70 °FMild.2 mph72%29.78 "HgN/A
2:00 PM67 °FMild.5 mph71%29.78 "HgN/A
1:00 PM66 °FMild.3 mph73%29.79 "HgN/A
12:00 PM64 °FMild.3 mph77%29.82 "HgN/A
11:00 AM63 °FMild.6 mph76%29.81 "HgN/A
Weather by CustomWeather, © 2014

See weather overviewHow to use our weather pages